Time,TemperatureF,DewpointF,PressureIn,WindDirection,WindDirectionDegrees,WindSpeedMPH,WindSpeedGustMPH,Humidity,HourlyPrecipIn,Conditions,Clouds,dailyrainin,SoftwareType,DateUTC
2013-07-01 00:00:00,65.0,64.4,29.80,NNE,23,0.0,0.0,98,0.00,,SKC,0.46,VWS V14.01,2013-07-01 04:00:00,
2013-07-01 00:01:00,64.7,64.1,29.80,NNE,23,0.0,0.0,98,0.00,,SKC,0.00,VWS V14.01,2013-07-01 04:01:00,
2013-07-01 00:06:00,64.8,64.2,29.80,NNE,23,0.0,0.0,98,0.00,,SKC,0.00,VWS V14.01,2013-07-01 04:06:00,
2013-07-01 00:11:00,64.8,64.2,29.79,NNE,23,0.0,0.0,98,0.00,,SKC,0.00,VWS V14.01,2013-07-01 04:11:00,
2013-07-01 00:16:00,64.7,64.1,29.80,NNE,23,0.0,1.0,98,0.00,,SKC,0.00,VWS V14.01,2013-07-01 04:16:00,
2013-07-01 00:21:00,64.7,64.1,29.80,NNE,23,0.0,1.0,98,0.00,,SKC,0.00,VWS V14.01,2013-07-01 04:21:00,
2013-07-01 00:26:00,64.7,64.1,29.80,NNE,23,0.0,1.0,98,0.00,,SKC,0.00,VWS V14.01,2013-07-01 04:26:00,
2013-07-01 00:30:00,64.7,64.1,29.80,NNE,23,0.0,1.0,98,0.00,,SKC,0.00,VWS V14.01,2013-07-01 04:30:00,
2013-07-01 00:31:00,64.8,64.2,29.81,NNE,23,0.0,0.0,98,0.00,,SKC,0.00,VWS V14.01,2013-07-01 04:31:00,
2013-07-01 00:36:00,64.7,64.1,29.80,NNE,23,0.0,0.0,98,0.00,,SKC,0.00,VWS V14.01,2013-07-01 04:36:00,
2013-07-01 00:41:00,64.7,64.1,29.80,NNE,23,0.0,0.0,98,0.00,,SKC,0.00,VWS V14.01,2013-07-01 04:41:00,
2013-07-01 00:46:00,64.7,64.1,29.80,NNE,23,0.0,0.0,98,0.00,,SKC,0.00,VWS V14.01,2013-07-01 04:46:00,
2013-07-01 00:51:00,64.6,64.3,29.80,NNE,23,0.0,0.0,99,0.00,,SKC,0.00,VWS V14.01,2013-07-01 04:51:00,
2013-07-01 01:00:00,64.6,64.3,29.80,NNE,23,0.0,0.0,99,0.00,,SKC,0.00,VWS V14.01,2013-07-01 05:00:00,
2013-07-01 01:01:00,64.6,64.3,29.80,NNE,23,1.0,1.0,99,0.00,,SKC,0.00,VWS V14.01,2013-07-01 05:01:00,
2013-07-01 01:06:00,64.6,64.3,29.80,NNE,23,1.0,2.0,99,0.00,,SKC,0.00,VWS V14.01,2013-07-01 05:06:00,
2013-07-01 01:11:00,64.7,64.4,29.80,NNE,23,1.0,2.0,99,0.00,,SKC,0.00,VWS V14.01,2013-07-01 05:11:00,
2013-07-01 01:16:00,64.9,64.6,29.80,NE,44,0.0,2.0,99,0.00,,SKC,0.00,VWS V14.01,2013-07-01 05:16:00,
2013-07-01 01:21:00,65.2,64.9,29.80,NE,44,0.0,2.0,99,0.00,,SKC,0.00,VWS V14.01,2013-07-01 05:21:00,
2013-07-01 01:26:00,65.4,65.1,29.80,NE,44,0.0,2.0,99,0.00,,SKC,0.00,VWS V14.01,2013-07-01 05:26:00,
2013-07-01 01:30:00,65.6,65.3,29.80,West,266,1.0,2.0,99,0.00,,SKC,0.00,VWS V14.01,2013-07-01 05:30:00,
2013-07-01 01:31:00,65.6,65.3,29.80,West,266,0.0,1.0,99,0.00,,SKC,0.00,VWS V14.01,2013-07-01 05:31:00,
2013-07-01 01:36:00,65.8,65.5,29.80,North,354,0.0,2.0,99,0.00,,SKC,0.00,VWS V14.01,2013-07-01 05:36:00,
2013-07-01 01:41:00,65.9,65.6,29.79,SW,224,0.0,4.0,99,0.00,,SKC,0.00,VWS V14.01,2013-07-01 05:41:00,
2013-07-01 01:46:00,65.9,65.6,29.79,SW,221,0.0,4.0,99,0.00,,SKC,0.00,VWS V14.01,2013-07-01 05:46:00,
2013-07-01 01:51:00,65.8,65.2,29.79,SSW,197,4.0,4.0,98,0.00,,SKC,0.00,VWS V14.01,2013-07-01 05:51:00,
2013-07-01 01:56:00,65.8,65.2,29.79,WSW,243,3.0,5.0,98,0.00,,SKC,0.00,VWS V14.01,2013-07-01 05:56:00,
2013-07-01 02:00:00,65.9,65.3,29.79,WSW,255,1.0,5.0,98,0.00,,SKC,0.00,VWS V14.01,2013-07-01 06:00:00,
2013-07-01 02:01:00,65.8,65.2,29.79,SSW,195,1.0,3.0,98,0.00,,SKC,0.00,VWS V14.01,2013-07-01 06:01:00,
2013-07-01 02:06:00,65.8,65.2,29.79,SSW,195,0.0,3.0,98,0.00,,SKC,0.00,VWS V14.01,2013-07-01 06:06:00,
2013-07-01 02:11:00,65.8,64.9,29.80,NNE,19,0.0,3.0,97,0.00,,SKC,0.00,VWS V14.01,2013-07-01 06:11:00,
2013-07-01 02:16:00,65.8,64.9,29.79,SE,145,2.0,3.0,97,0.00,,SKC,0.00,VWS V14.01,2013-07-01 06:16:00,
2013-07-01 02:21:00,65.9,65.0,29.79,South,187,0.0,3.0,97,0.00,,SKC,0.00,VWS V14.01,2013-07-01 06:21:00,
2013-07-01 02:26:00,65.9,65.0,29.79,SSW,195,0.0,3.0,97,0.00,,SKC,0.00,VWS V14.01,2013-07-01 06:26:00,
2013-07-01 02:30:00,65.9,65.0,29.80,SE,143,0.0,3.0,97,0.00,,SKC,0.00,VWS V14.01,2013-07-01 06:30:00,
2013-07-01 02:31:00,65.8,64.9,29.80,SE,143,0.0,0.0,97,0.00,,SKC,0.00,VWS V14.01,2013-07-01 06:31:00,
2013-07-01 02:36:00,65.8,64.6,29.80,SE,143,0.0,1.0,96,0.00,,SKC,0.00,VWS V14.01,2013-07-01 06:36:00,
2013-07-01 02:41:00,65.8,64.6,29.80,West,274,0.0,2.0,96,0.00,,SKC,0.00,VWS V14.01,2013-07-01 06:41:00,
2013-07-01 02:46:00,65.7,64.5,29.80,West,274,0.0,2.0,96,0.00,,SKC,0.00,VWS V14.01,2013-07-01 06:46:00,
2013-07-01 02:51:00,65.7,64.8,29.80,West,277,0.0,2.0,97,0.00,,SKC,0.00,VWS V14.01,2013-07-01 06:51:00,
2013-07-01 02:56:00,65.6,64.7,29.79,SW,232,0.0,2.0,97,0.00,,SKC,0.00,VWS V14.01,2013-07-01 06:56:00,
2013-07-01 03:00:00,65.6,64.7,29.79,SSW,212,0.0,2.0,97,0.00,,SKC,0.00,VWS V14.01,2013-07-01 07:00:00,
2013-07-01 03:01:00,65.6,64.7,29.79,SSW,212,0.0,0.0,97,0.00,,SKC,0.00,VWS V14.01,2013-07-01 07:01:00,
2013-07-01 03:06:00,65.5,64.6,29.79,SSW,212,0.0,0.0,97,0.00,,SKC,0.00,VWS V14.01,2013-07-01 07:06:00,
2013-07-01 03:11:00,65.5,64.6,29.80,SSW,212,0.0,0.0,97,0.00,,SKC,0.00,VWS V14.01,2013-07-01 07:11:00,
2013-07-01 03:16:00,65.5,64.6,29.80,SSW,212,0.0,0.0,97,0.00,,SKC,0.00,VWS V14.01,2013-07-01 07:16:00,
2013-07-01 03:30:00,65.4,64.5,29.80,SSW,212,0.0,1.0,97,0.00,,SKC,0.00,VWS V14.01,2013-07-01 07:30:00,
2013-07-01 03:31:00,65.3,64.4,29.80,SSW,212,0.0,1.0,97,0.00,,SKC,0.00,VWS V14.01,2013-07-01 07:31:00,
2013-07-01 03:36:00,65.3,64.4,29.80,SSW,212,0.0,1.0,97,0.00,,SKC,0.00,VWS V14.01,2013-07-01 07:36:00,
2013-07-01 03:41:00,65.3,64.4,29.80,SSW,212,0.0,1.0,97,0.00,,SKC,0.00,VWS V14.01,2013-07-01 07:41:00,
2013-07-01 03:46:00,65.2,64.3,29.80,SSW,213,0.0,1.0,97,0.00,,SKC,0.00,VWS V14.01,2013-07-01 07:46:00,
2013-07-01 03:51:00,65.2,64.3,29.80,SSW,212,0.0,1.0,97,0.00,,SKC,0.00,VWS V14.01,2013-07-01 07:51:00,
2013-07-01 03:56:00,65.2,64.3,29.80,SSW,203,0.0,1.0,97,0.00,,SKC,0.00,VWS V14.01,2013-07-01 07:56:00,
2013-07-01 04:00:00,65.2,64.3,29.80,SSW,203,0.0,1.0,97,0.01,,SKC,0.01,VWS V14.01,2013-07-01 08:00:00,
2013-07-01 04:01:00,65.2,64.3,29.80,SSW,203,0.0,0.0,97,0.01,,SKC,0.01,VWS V14.01,2013-07-01 08:01:00,
2013-07-01 04:06:00,65.2,64.6,29.80,SSW,203,0.0,0.0,98,0.01,,SKC,0.01,VWS V14.01,2013-07-01 08:06:00,
2013-07-01 04:11:00,65.2,64.6,29.80,SSW,203,0.0,0.0,98,0.02,,SKC,0.02,VWS V14.01,2013-07-01 08:11:00,
2013-07-01 04:16:00,65.2,64.6,29.79,SSW,203,0.0,0.0,98,0.03,,SKC,0.03,VWS V14.01,2013-07-01 08:16:00,
2013-07-01 04:21:00,65.2,64.6,29.79,SSW,203,0.0,0.0,98,0.03,,SKC,0.03,VWS V14.01,2013-07-01 08:21:00,
2013-07-01 04:26:00,65.1,64.5,29.78,SSW,203,0.0,0.0,98,0.04,,SKC,0.04,VWS V14.01,2013-07-01 08:26:00,
2013-07-01 04:30:00,65.1,64.5,29.78,SSW,199,0.0,1.0,98,0.04,,SKC,0.04,VWS V14.01,2013-07-01 08:30:00,
2013-07-01 04:31:00,65.1,64.5,29.78,SSW,198,0.0,0.0,98,0.04,,SKC,0.04,VWS V14.01,2013-07-01 08:31:00,
2013-07-01 04:36:00,65.0,64.4,29.79,SSW,198,1.0,1.0,98,0.04,,SKC,0.04,VWS V14.01,2013-07-01 08:36:00,
2013-07-01 04:41:00,65.0,64.4,29.80,SSW,198,0.0,1.0,98,0.04,,SKC,0.04,VWS V14.01,2013-07-01 08:41:00,
2013-07-01 04:46:00,65.0,64.4,29.80,SSW,198,0.0,1.0,98,0.04,,SKC,0.04,VWS V14.01,2013-07-01 08:46:00,
2013-07-01 04:51:00,64.9,64.3,29.80,SSW,199,0.0,1.0,98,0.04,,SKC,0.04,VWS V14.01,2013-07-01 08:51:00,
2013-07-01 04:56:00,64.9,64.3,29.80,SSW,198,0.0,1.0,98,0.04,,SKC,0.04,VWS V14.01,2013-07-01 08:56:00,
2013-07-01 05:00:00,64.9,64.3,29.80,SSW,198,0.0,1.0,98,0.04,,SKC,0.04,VWS V14.01,2013-07-01 09:00:00,
2013-07-01 05:01:00,64.9,64.3,29.80,SSW,198,0.0,0.0,98,0.03,,SKC,0.04,VWS V14.01,2013-07-01 09:01:00,
2013-07-01 05:06:00,64.9,64.3,29.79,SSW,198,0.0,1.0,98,0.03,,SKC,0.04,VWS V14.01,2013-07-01 09:06:00,
2013-07-01 05:11:00,65.0,64.4,29.81,SW,221,1.0,1.0,98,0.03,,SKC,0.04,VWS V14.01,2013-07-01 09:11:00,
2013-07-01 05:16:00,65.0,64.4,29.81,SW,236,0.0,2.0,98,0.03,,SKC,0.04,VWS V14.01,2013-07-01 09:16:00,
2013-07-01 05:21:00,65.0,64.4,29.81,SW,236,0.0,2.0,98,0.03,,SKC,0.04,VWS V14.01,2013-07-01 09:21:00,
2013-07-01 05:26:00,64.9,64.3,29.81,SW,236,0.0,2.0,98,0.03,,SKC,0.04,VWS V14.01,2013-07-01 09:26:00,
2013-07-01 05:30:00,64.9,64.3,29.81,SW,236,0.0,2.0,98,0.03,,SKC,0.04,VWS V14.01,2013-07-01 09:30:00,
2013-07-01 05:31:00,64.9,64.3,29.81,SW,236,0.0,0.0,98,0.00,,SKC,0.04,VWS V14.01,2013-07-01 09:31:00,
2013-07-01 05:36:00,64.8,64.2,29.81,SW,236,0.0,0.0,98,0.00,,SKC,0.04,VWS V14.01,2013-07-01 09:36:00,
2013-07-01 05:41:00,64.8,64.2,29.81,SW,236,0.0,0.0,98,0.00,,SKC,0.04,VWS V14.01,2013-07-01 09:41:00,
2013-07-01 05:46:00,64.8,64.2,29.82,SW,236,0.0,0.0,98,0.00,,SKC,0.04,VWS V14.01,2013-07-01 09:46:00,
2013-07-01 05:51:00,64.8,64.2,29.82,SW,236,0.0,0.0,98,0.00,,SKC,0.04,VWS V14.01,2013-07-01 09:51:00,
2013-07-01 05:56:00,64.8,64.5,29.82,SW,236,0.0,0.0,99,0.00,,SKC,0.04,VWS V14.01,2013-07-01 09:56:00,
2013-07-01 06:00:00,64.8,64.5,29.82,SW,236,0.0,1.0,99,0.00,,SKC,0.04,VWS V14.01,2013-07-01 10:00:00,
2013-07-01 06:01:00,64.8,64.5,29.82,SW,236,0.0,0.0,99,0.00,,SKC,0.04,VWS V14.01,2013-07-01 10:01:00,
2013-07-01 06:06:00,64.9,64.6,29.82,SW,236,0.0,0.0,99,0.00,,SKC,0.04,VWS V14.01,2013-07-01 10:06:00,
2013-07-01 06:11:00,64.9,64.6,29.83,SW,236,0.0,0.0,99,0.00,,SKC,0.04,VWS V14.01,2013-07-01 10:11:00,
2013-07-01 06:16:00,65.0,64.7,29.83,SW,236,0.0,0.0,99,0.01,,SKC,0.05,VWS V14.01,2013-07-01 10:16:00,
2013-07-01 06:21:00,64.9,64.6,29.83,SW,236,0.0,0.0,99,0.01,,SKC,0.05,VWS V14.01,2013-07-01 10:21:00,
2013-07-01 06:26:00,64.9,64.6,29.83,SW,236,0.0,1.0,99,0.01,,SKC,0.05,VWS V14.01,2013-07-01 10:26:00,
2013-07-01 06:30:00,64.9,64.6,29.83,SW,236,0.0,1.0,99,0.01,,SKC,0.05,VWS V14.01,2013-07-01 10:30:00,
2013-07-01 06:31:00,64.9,64.6,29.83,SW,236,0.0,0.0,99,0.01,,SKC,0.05,VWS V14.01,2013-07-01 10:31:00,
2013-07-01 06:36:00,65.0,64.7,29.83,SW,236,0.0,0.0,99,0.01,,SKC,0.05,VWS V14.01,2013-07-01 10:36:00,
2013-07-01 06:41:00,65.0,64.7,29.83,SW,236,0.0,0.0,99,0.01,,SKC,0.05,VWS V14.01,2013-07-01 10:41:00,
2013-07-01 06:46:00,65.0,64.7,29.83,SW,236,0.0,1.0,99,0.01,,SKC,0.05,VWS V14.01,2013-07-01 10:46:00,
2013-07-01 06:51:00,65.0,64.7,29.83,SW,236,0.0,1.0,99,0.01,,SKC,0.05,VWS V14.01,2013-07-01 10:51:00,
2013-07-01 06:56:00,65.0,64.7,29.83,SW,236,0.0,1.0,99,0.01,,SKC,0.05,VWS V14.01,2013-07-01 10:56:00,
2013-07-01 07:00:00,64.9,64.6,29.83,SW,236,0.0,1.0,99,0.01,,SKC,0.05,VWS V14.01,2013-07-01 11:00:00,
2013-07-01 07:01:00,64.9,64.6,29.83,SW,236,0.0,0.0,99,0.01,,SKC,0.05,VWS V14.01,2013-07-01 11:01:00,
2013-07-01 07:06:00,65.0,64.7,29.83,SW,236,0.0,0.0,99,0.01,,SKC,0.05,VWS V14.01,2013-07-01 11:06:00,
2013-07-01 07:11:00,65.0,64.7,29.83,SW,236,0.0,0.0,99,0.01,,SKC,0.05,VWS V14.01,2013-07-01 11:11:00,
2013-07-01 07:16:00,65.2,64.9,29.83,SW,236,0.0,0.0,99,0.01,,SKC,0.05,VWS V14.01,2013-07-01 11:16:00,
2013-07-01 07:21:00,65.2,64.9,29.83,SW,236,0.0,0.0,99,0.01,,SKC,0.05,VWS V14.01,2013-07-01 11:21:00,
2013-07-01 07:26:00,65.2,64.9,29.84,SW,236,0.0,0.0,99,0.01,,SKC,0.05,VWS V14.01,2013-07-01 11:26:00,
2013-07-01 07:30:00,65.2,64.9,29.84,SW,236,0.0,0.0,99,0.01,,SKC,0.05,VWS V14.01,2013-07-01 11:30:00,
2013-07-01 07:31:00,65.2,64.9,29.84,SW,236,0.0,0.0,99,0.00,,SKC,0.05,VWS V14.01,2013-07-01 11:31:00,
2013-07-01 07:36:00,65.2,64.9,29.84,SW,236,0.0,1.0,99,0.00,,SKC,0.05,VWS V14.01,2013-07-01 11:36:00,
2013-07-01 07:41:00,65.2,64.9,29.84,SW,236,0.0,1.0,99,0.00,,SKC,0.05,VWS V14.01,2013-07-01 11:41:00,
2013-07-01 07:46:00,65.3,65.0,29.84,SW,236,0.0,1.0,99,0.00,,SKC,0.05,VWS V14.01,2013-07-01 11:46:00,
2013-07-01 07:51:00,65.5,65.2,29.84,SW,225,0.0,1.0,99,0.00,,SKC,0.05,VWS V14.01,2013-07-01 11:51:00,
2013-07-01 07:56:00,65.7,65.4,29.84,ENE,63,1.0,1.0,99,0.00,,SKC,0.05,VWS V14.01,2013-07-01 11:56:00,
2013-07-01 08:00:00,65.7,65.4,29.84,WNW,302,0.0,1.0,99,0.00,,SKC,0.05,VWS V14.01,2013-07-01 12:00:00,
2013-07-01 08:01:00,65.8,65.5,29.84,WNW,302,0.0,0.0,99,0.00,,SKC,0.05,VWS V14.01,2013-07-01 12:01:00,
2013-07-01 08:06:00,66.1,65.8,29.84,WNW,302,0.0,1.0,99,0.00,,SKC,0.05,VWS V14.01,2013-07-01 12:06:00,
2013-07-01 08:11:00,66.2,65.9,29.84,WNW,302,0.0,1.0,99,0.00,,SKC,0.05,VWS V14.01,2013-07-01 12:11:00,
2013-07-01 08:16:00,66.5,66.2,29.84,WNW,302,0.0,1.0,99,0.00,,SKC,0.05,VWS V14.01,2013-07-01 12:16:00,
2013-07-01 08:21:00,66.6,66.0,29.84,WNW,302,0.0,1.0,98,0.00,,SKC,0.05,VWS V14.01,2013-07-01 12:21:00,
2013-07-01 08:26:00,66.7,66.1,29.84,WNW,302,0.0,1.0,98,0.00,,SKC,0.05,VWS V14.01,2013-07-01 12:26:00,
2013-07-01 08:30:00,67.2,66.6,29.84,WNW,302,0.0,1.0,98,0.00,,SKC,0.05,VWS V14.01,2013-07-01 12:30:00,
2013-07-01 08:31:00,67.3,66.7,29.84,WNW,302,0.0,0.0,98,0.00,,SKC,0.05,VWS V14.01,2013-07-01 12:31:00,
2013-07-01 08:36:00,67.9,67.0,29.85,West,273,1.0,1.0,97,0.00,,SKC,0.05,VWS V14.01,2013-07-01 12:36:00,
2013-07-01 08:41:00,68.6,67.1,29.84,SSW,200,0.0,2.0,95,0.00,,SKC,0.05,VWS V14.01,2013-07-01 12:41:00,
2013-07-01 08:46:00,69.9,67.8,29.84,WSW,240,0.0,2.0,93,0.00,,SKC,0.05,VWS V14.01,2013-07-01 12:46:00,
2013-07-01 08:51:00,70.5,66.4,29.84,SW,233,1.0,3.0,87,0.00,,SKC,0.05,VWS V14.01,2013-07-01 12:51:00,
2013-07-01 08:56:00,70.6,67.2,29.84,SW,233,1.0,3.0,89,0.00,,SKC,0.05,VWS V14.01,2013-07-01 12:56:00,
2013-07-01 09:00:00,70.6,67.2,29.84,South,186,0.0,3.0,89,0.00,,SKC,0.05,VWS V14.01,2013-07-01 13:00:00,
2013-07-01 09:01:00,70.6,67.2,29.84,South,188,0.0,0.0,89,0.00,,SKC,0.05,VWS V14.01,2013-07-01 13:01:00,
2013-07-01 09:06:00,70.2,67.1,29.85,SW,218,0.0,2.0,90,0.00,,SKC,0.05,VWS V14.01,2013-07-01 13:06:00,
2013-07-01 09:11:00,70.0,66.6,29.85,SW,226,0.0,2.0,89,0.00,,SKC,0.05,VWS V14.01,2013-07-01 13:11:00,
2013-07-01 09:16:00,69.9,66.5,29.85,SSW,198,0.0,2.0,89,0.00,,SKC,0.05,VWS V14.01,2013-07-01 13:16:00,
2013-07-01 09:21:00,70.3,66.6,29.85,South,173,0.0,5.0,88,0.00,,SKC,0.05,VWS V14.01,2013-07-01 13:21:00,
2013-07-01 09:26:00,70.9,66.8,29.85,SW,235,3.0,5.0,87,0.00,,SKC,0.05,VWS V14.01,2013-07-01 13:26:00,
2013-07-01 09:30:00,67.2,66.6,29.84,WNW,302,0.0,1.0,98,0.00,,SKC,0.05,VWS V14.01,2013-07-01 13:30:00,
2013-07-01 09:34:00,71.2,66.1,29.85,WSW,254,1.0,1.0,84,0.00,,SKC,0.05,VWS V14.01,2013-07-01 13:34:00,
2013-07-01 09:39:00,71.7,66.3,29.85,SW,227,2.0,3.0,83,0.00,,SKC,0.05,VWS V14.01,2013-07-01 13:39:00,
2013-07-01 09:44:00,72.5,67.4,29.85,SW,235,0.0,3.0,84,0.00,,SKC,0.05,VWS V14.01,2013-07-01 13:44:00,
2013-07-01 09:49:00,73.4,67.6,29.85,SSW,210,0.0,3.0,82,0.00,,SKC,0.05,VWS V14.01,2013-07-01 13:49:00,
2013-07-01 09:54:00,73.1,67.3,29.85,SW,232,0.0,4.0,82,0.00,,SKC,0.05,VWS V14.01,2013-07-01 13:54:00,
2013-07-01 09:59:00,72.8,66.3,29.85,SSW,196,0.0,4.0,80,0.00,,SKC,0.05,VWS V14.01,2013-07-01 13:59:00,
2013-07-01 10:00:00,72.7,66.9,29.85,SSW,195,0.0,4.0,82,0.00,,SKC,0.05,VWS V14.01,2013-07-01 14:00:00,
2013-07-01 10:04:00,72.5,66.7,29.85,SW,214,0.0,2.0,82,0.00,,SKC,0.05,VWS V14.01,2013-07-01 14:04:00,
2013-07-01 10:09:00,72.5,67.1,29.85,SSW,207,1.0,2.0,83,0.00,,SKC,0.05,VWS V14.01,2013-07-01 14:09:00,
2013-07-01 10:14:00,73.1,66.9,29.85,South,170,1.0,2.0,81,0.00,,SKC,0.05,VWS V14.01,2013-07-01 14:14:00,
2013-07-01 10:19:00,73.4,66.9,29.85,ENE,60,1.0,2.0,80,0.00,,SKC,0.05,VWS V14.01,2013-07-01 14:19:00,
2013-07-01 10:24:00,73.6,67.1,29.85,SW,224,0.0,3.0,80,0.00,,SKC,0.05,VWS V14.01,2013-07-01 14:24:00,
2013-07-01 10:29:00,73.5,66.2,29.85,SSW,203,0.0,3.0,78,0.00,,SKC,0.05,VWS V14.01,2013-07-01 14:29:00,
2013-07-01 10:30:00,73.6,66.7,29.85,SW,219,0.0,3.0,79,0.00,,SKC,0.05,VWS V14.01,2013-07-01 14:30:00,
2013-07-01 10:34:00,73.8,66.9,29.85,SSE,152,1.0,2.0,79,0.00,,SKC,0.05,VWS V14.01,2013-07-01 14:34:00,
2013-07-01 10:39:00,74.4,67.5,29.85,SW,225,1.0,3.0,79,0.00,,SKC,0.05,VWS V14.01,2013-07-01 14:39:00,
2013-07-01 10:44:00,74.9,67.2,29.85,SSW,201,1.0,5.0,77,0.00,,SKC,0.05,VWS V14.01,2013-07-01 14:44:00,
2013-07-01 10:49:00,74.6,66.5,29.85,SSE,158,4.0,5.0,76,0.00,,SKC,0.05,VWS V14.01,2013-07-01 14:49:00,
2013-07-01 10:54:00,75.2,68.2,29.85,South,186,2.0,5.0,79,0.00,,SKC,0.05,VWS V14.01,2013-07-01 14:54:00,
2013-07-01 10:58:00,75.8,66.5,29.85,SSW,196,1.0,6.0,73,0.00,,SKC,0.05,VWS V14.01,2013-07-01 14:58:00,
2013-07-01 11:00:00,75.9,66.2,29.85,SSW,197,1.0,6.0,72,0.00,,SKC,0.05,VWS V14.01,2013-07-01 15:00:00,
2013-07-01 11:03:00,76.1,68.0,29.85,East,100,1.0,4.0,76,0.00,,SKC,0.05,VWS V14.01,2013-07-01 15:03:00,
2013-07-01 11:08:00,76.4,66.7,29.86,SSE,163,0.0,4.0,72,0.00,,SKC,0.05,VWS V14.01,2013-07-01 15:08:00,
2013-07-01 11:13:00,76.0,67.5,29.85,WSW,243,0.0,4.0,75,0.00,,SKC,0.05,VWS V14.01,2013-07-01 15:13:00,
2013-07-01 11:18:00,76.6,66.9,29.86,SE,135,1.0,5.0,72,0.00,,SKC,0.05,VWS V14.01,2013-07-01 15:18:00,
2013-07-01 11:23:00,77.2,67.9,29.86,South,183,0.0,5.0,73,0.00,,SKC,0.05,VWS V14.01,2013-07-01 15:23:00,
2013-07-01 11:28:00,77.9,67.8,29.86,ENE,69,0.0,5.0,71,0.00,,SKC,0.05,VWS V14.01,2013-07-01 15:28:00,
2013-07-01 11:30:00,78.1,69.1,29.86,SSW,211,2.0,5.0,74,0.00,,SKC,0.05,VWS V14.01,2013-07-01 15:30:00,
2013-07-01 11:33:00,78.2,68.0,29.86,SSW,207,5.0,5.0,71,0.00,,SKC,0.05,VWS V14.01,2013-07-01 15:33:00,
2013-07-01 11:38:00,78.0,68.2,29.86,NE,46,2.0,7.0,72,0.00,,SKC,0.05,VWS V14.01,2013-07-01 15:38:00,
2013-07-01 11:43:00,78.8,68.2,29.86,SSW,211,0.0,7.0,70,0.00,,SKC,0.05,VWS V14.01,2013-07-01 15:43:00,
2013-07-01 11:48:00,79.4,67.5,29.85,SSW,193,2.0,7.0,67,0.00,,SKC,0.05,VWS V14.01,2013-07-01 15:48:00,
2013-07-01 11:53:00,78.5,65.3,29.85,WSW,240,0.0,7.0,64,0.00,,SKC,0.05,VWS V14.01,2013-07-01 15:53:00,
2013-07-01 11:58:00,77.7,66.7,29.86,WSW,257,0.0,7.0,69,0.00,,SKC,0.05,VWS V14.01,2013-07-01 15:58:00,
2013-07-01 12:00:00,77.6,67.1,29.86,SSW,210,0.0,7.0,70,0.00,,SKC,0.05,VWS V14.01,2013-07-01 16:00:00,
2013-07-01 12:03:00,77.2,66.2,29.86,WSW,253,0.0,4.0,69,0.00,,SKC,0.05,VWS V14.01,2013-07-01 16:03:00,
2013-07-01 12:08:00,76.9,66.4,29.86,SSW,212,1.0,4.0,70,0.00,,SKC,0.05,VWS V14.01,2013-07-01 16:08:00,
2013-07-01 12:13:00,77.1,67.4,29.86,SSW,197,0.0,4.0,72,0.00,,SKC,0.05,VWS V14.01,2013-07-01 16:13:00,
2013-07-01 12:18:00,76.9,66.8,29.85,SW,222,1.0,4.0,71,0.00,,SKC,0.05,VWS V14.01,2013-07-01 16:18:00,
2013-07-01 12:23:00,76.7,67.4,29.86,South,181,0.0,4.0,73,0.00,,SKC,0.05,VWS V14.01,2013-07-01 16:23:00,
2013-07-01 12:28:00,76.6,67.7,29.85,South,188,0.0,4.0,74,0.00,,SKC,0.05,VWS V14.01,2013-07-01 16:28:00,
2013-07-01 12:30:00,76.5,66.8,29.85,SW,218,1.0,4.0,72,0.00,,SKC,0.05,VWS V14.01,2013-07-01 16:30:00,
2013-07-01 12:33:00,76.3,67.0,29.85,SSW,197,0.0,3.0,73,0.00,,SKC,0.05,VWS V14.01,2013-07-01 16:33:00,
2013-07-01 12:38:00,76.4,66.3,29.84,SSE,165,1.0,5.0,71,0.00,,SKC,0.05,VWS V14.01,2013-07-01 16:38:00,
2013-07-01 12:43:00,76.3,67.4,29.85,South,172,0.0,5.0,74,0.00,,SKC,0.05,VWS V14.01,2013-07-01 16:43:00,
2013-07-01 12:48:00,76.3,66.6,29.84,SSW,197,1.0,5.0,72,0.00,,SKC,0.05,VWS V14.01,2013-07-01 16:48:00,
2013-07-01 12:53:00,76.6,67.3,29.84,SSW,205,2.0,5.0,73,0.00,,SKC,0.05,VWS V14.01,2013-07-01 16:53:00,
2013-07-01 12:58:00,77.3,66.8,29.84,SSE,165,0.0,5.0,70,0.00,,SKC,0.05,VWS V14.01,2013-07-01 16:58:00,
2013-07-01 13:00:00,77.5,66.9,29.84,SE,136,1.0,5.0,70,0.00,,SKC,0.05,VWS V14.01,2013-07-01 17:00:00,
2013-07-01 13:03:00,78.1,67.1,29.84,SSW,200,1.0,5.0,69,0.00,,SKC,0.05,VWS V14.01,2013-07-01 17:03:00,
2013-07-01 13:08:00,78.8,66.9,29.83,SW,226,3.0,5.0,67,0.00,,SKC,0.05,VWS V14.01,2013-07-01 17:08:00,
2013-07-01 13:14:00,78.7,67.3,29.83,SSW,210,1.0,5.0,68,0.00,,SKC,0.05,VWS V14.01,2013-07-01 17:14:00,
2013-07-01 13:19:00,79.6,67.7,29.83,SW,224,3.0,5.0,67,0.00,,SKC,0.05,VWS V14.01,2013-07-01 17:19:00,
2013-07-01 13:24:00,79.8,67.0,29.83,SSW,203,3.0,6.0,65,0.00,,SKC,0.05,VWS V14.01,2013-07-01 17:24:00,
2013-07-01 13:29:00,80.2,68.3,29.83,ENE,68,3.0,6.0,67,0.00,,SKC,0.05,VWS V14.01,2013-07-01 17:29:00,
2013-07-01 13:30:00,80.3,66.6,29.83,ESE,106,2.0,6.0,63,0.00,,SKC,0.05,VWS V14.01,2013-07-01 17:30:00,
2013-07-01 13:33:00,80.5,65.3,29.83,WSW,239,3.0,4.0,60,0.00,,SKC,0.05,VWS V14.01,2013-07-01 17:33:00,
2013-07-01 13:38:00,80.3,66.6,29.83,South,191,1.0,7.0,63,0.00,,SKC,0.05,VWS V14.01,2013-07-01 17:38:00,
2013-07-01 13:43:00,80.7,66.5,29.83,SE,139,1.0,7.0,62,0.00,,SKC,0.05,VWS V14.01,2013-07-01 17:43:00,
2013-07-01 13:48:00,80.8,68.4,29.82,SSW,208,3.0,7.0,66,0.00,,SKC,0.05,VWS V14.01,2013-07-01 17:48:00,
2013-07-01 13:53:00,81.6,66.4,29.82,SE,146,0.0,7.0,60,0.00,,SKC,0.05,VWS V14.01,2013-07-01 17:53:00,
2013-07-01 13:58:00,81.8,65.6,29.82,ESE,105,1.0,11.0,58,0.00,,SKC,0.05,VWS V14.01,2013-07-01 17:58:00,
2013-07-01 14:00:00,81.8,66.1,29.82,West,271,2.0,11.0,59,0.00,,SKC,0.05,VWS V14.01,2013-07-01 18:00:00,
2013-07-01 14:04:00,81.4,64.2,29.82,East,98,4.0,6.0,56,0.00,,SKC,0.05,VWS V14.01,2013-07-01 18:04:00,
2013-07-01 14:09:00,81.1,65.4,29.82,South,172,1.0,6.0,59,0.00,,SKC,0.05,VWS V14.01,2013-07-01 18:09:00,
2013-07-01 14:14:00,81.5,66.3,29.82,SSE,158,1.0,6.0,60,0.00,,SKC,0.05,VWS V14.01,2013-07-01 18:14:00,
2013-07-01 14:18:00,81.5,65.8,29.82,SSW,203,1.0,6.0,59,0.00,,SKC,0.05,VWS V14.01,2013-07-01 18:18:00,
2013-07-01 14:23:00,81.2,66.5,29.82,South,191,2.0,6.0,61,0.00,,SKC,0.05,VWS V14.01,2013-07-01 18:23:00,
2013-07-01 14:28:00,80.6,65.9,29.82,SSW,205,1.0,6.0,61,0.00,,SKC,0.05,VWS V14.01,2013-07-01 18:28:00,
2013-07-01 14:30:00,80.5,64.9,29.82,SSW,205,1.0,6.0,59,0.00,,SKC,0.05,VWS V14.01,2013-07-01 18:30:00,
2013-07-01 14:33:00,80.8,65.2,29.82,South,180,4.0,4.0,59,0.00,,SKC,0.05,VWS V14.01,2013-07-01 18:33:00,
2013-07-01 14:38:00,81.5,66.3,29.82,ESE,121,0.0,4.0,60,0.00,,SKC,0.05,VWS V14.01,2013-07-01 18:38:00,
2013-07-01 14:43:00,82.4,66.2,29.82,SSW,201,4.0,4.0,58,0.00,,SKC,0.05,VWS V14.01,2013-07-01 18:43:00,
2013-07-01 14:48:00,82.3,66.1,29.82,SW,233,3.0,4.0,58,0.00,,SKC,0.05,VWS V14.01,2013-07-01 18:48:00,
2013-07-01 14:53:00,81.8,67.5,29.82,SSW,197,2.0,4.0,62,0.00,,SKC,0.05,VWS V14.01,2013-07-01 18:53:00,
2013-07-01 14:58:00,81.9,66.2,29.82,SE,126,1.0,4.0,59,0.00,,SKC,0.05,VWS V14.01,2013-07-01 18:58:00,
2013-07-01 15:00:00,82.0,69.1,29.82,West,277,1.0,4.0,65,0.00,,SKC,0.05,VWS V14.01,2013-07-01 19:00:00,
2013-07-01 15:03:00,82.2,66.9,29.82,West,266,1.0,4.0,60,0.00,,SKC,0.05,VWS V14.01,2013-07-01 19:03:00,
2013-07-01 15:08:00,82.5,67.2,29.81,SW,226,1.0,4.0,60,0.00,,SKC,0.05,VWS V14.01,2013-07-01 19:08:00,
2013-07-01 15:13:00,82.8,68.0,29.81,SW,219,3.0,5.0,61,0.00,,SKC,0.05,VWS V14.01,2013-07-01 19:13:00,
2013-07-01 15:18:00,82.7,67.9,29.81,SSW,197,4.0,7.0,61,0.00,,SKC,0.05,VWS V14.01,2013-07-01 19:18:00,
2013-07-01 15:23:00,82.4,69.5,29.82,SW,229,2.0,7.0,65,0.00,,SKC,0.05,VWS V14.01,2013-07-01 19:23:00,
2013-07-01 15:28:00,82.1,69.6,29.82,SSE,167,2.0,7.0,66,0.00,,SKC,0.05,VWS V14.01,2013-07-01 19:28:00,
2013-07-01 15:30:00,82.0,69.5,29.82,SSE,158,2.0,7.0,66,0.00,,SKC,0.05,VWS V14.01,2013-07-01 19:30:00,
2013-07-01 15:33:00,81.5,68.6,29.83,SW,219,4.0,11.0,65,0.00,,SKC,0.05,VWS V14.01,2013-07-01 19:33:00,
2013-07-01 15:38:00,80.3,69.2,29.83,SSW,208,0.0,11.0,69,0.00,,SKC,0.05,VWS V14.01,2013-07-01 19:38:00,
2013-07-01 15:43:00,79.7,69.1,29.82,WSW,242,1.0,11.0,70,0.00,,SKC,0.05,VWS V14.01,2013-07-01 19:43:00,
2013-07-01 15:48:00,78.8,68.6,29.82,SSE,163,0.0,11.0,71,0.00,,SKC,0.05,VWS V14.01,2013-07-01 19:48:00,
2013-07-01 15:53:00,78.2,68.4,29.83,SW,215,2.0,11.0,72,0.00,,SKC,0.05,VWS V14.01,2013-07-01 19:53:00,
2013-07-01 15:58:00,77.2,68.7,29.83,SW,215,2.0,11.0,75,0.00,,SKC,0.05,VWS V14.01,2013-07-01 19:58:00,
2013-07-01 16:00:00,76.9,68.4,29.83,SW,219,1.0,11.0,75,0.00,,SKC,0.05,VWS V14.01,2013-07-01 20:00:00,
2013-07-01 16:03:00,76.3,69.3,29.83,SSE,159,0.0,4.0,79,0.00,,SKC,0.05,VWS V14.01,2013-07-01 20:03:00,
2013-07-01 16:08:00,76.5,70.6,29.83,SW,219,0.0,4.0,82,0.01,,SKC,0.06,VWS V14.01,2013-07-01 20:08:00,
2013-07-01 16:13:00,76.7,70.1,29.83,SE,126,5.0,5.0,80,0.01,,SKC,0.06,VWS V14.01,2013-07-01 20:13:00,
2013-07-01 16:18:00,76.1,69.8,29.82,SSW,201,1.0,5.0,81,0.01,,SKC,0.06,VWS V14.01,2013-07-01 20:18:00,
2013-07-01 16:23:00,74.9,68.3,29.82,South,176,0.0,5.0,80,0.03,,SKC,0.08,VWS V14.01,2013-07-01 20:23:00,
2013-07-01 16:28:00,74.2,68.7,29.82,South,184,0.0,5.0,83,0.04,,SKC,0.09,VWS V14.01,2013-07-01 20:28:00,
2013-07-01 16:30:00,74.2,69.4,29.82,SSW,212,0.0,5.0,85,0.04,,SKC,0.09,VWS V14.01,2013-07-01 20:30:00,
2013-07-01 16:33:00,74.4,69.6,29.82,ENE,76,0.0,2.0,85,0.04,,SKC,0.09,VWS V14.01,2013-07-01 20:33:00,
2013-07-01 16:38:00,74.5,69.7,29.82,NE,49,0.0,2.0,85,0.04,,SKC,0.09,VWS V14.01,2013-07-01 20:38:00,
2013-07-01 16:43:00,74.8,70.0,29.82,WNW,285,0.0,2.0,85,0.04,,SKC,0.09,VWS V14.01,2013-07-01 20:43:00,
2013-07-01 16:48:00,75.8,71.0,29.82,ENE,75,1.0,2.0,85,0.04,,SKC,0.09,VWS V14.01,2013-07-01 20:48:00,
2013-07-01 16:53:00,76.4,71.2,29.81,ENE,58,3.0,4.0,84,0.04,,SKC,0.09,VWS V14.01,2013-07-01 20:53:00,
2013-07-01 16:58:00,76.9,71.3,29.81,ENE,60,0.0,4.0,83,0.04,,SKC,0.09,VWS V14.01,2013-07-01 20:58:00,
2013-07-01 17:00:00,77.1,71.9,29.81,ENE,60,1.0,4.0,84,0.04,,SKC,0.09,VWS V14.01,2013-07-01 21:00:00,
2013-07-01 17:03:00,77.9,71.2,29.81,West,281,0.0,2.0,80,0.04,,SKC,0.09,VWS V14.01,2013-07-01 21:03:00,
2013-07-01 17:08:00,78.8,70.2,29.81,NE,42,0.0,3.0,75,0.04,,SKC,0.09,VWS V14.01,2013-07-01 21:08:00,
2013-07-01 17:13:00,79.0,70.4,29.80,WSW,253,0.0,5.0,75,0.04,,SKC,0.09,VWS V14.01,2013-07-01 21:13:00,
2013-07-01 17:18:00,79.4,71.2,29.80,SSW,194,1.0,5.0,76,0.04,,SKC,0.09,VWS V14.01,2013-07-01 21:18:00,
2013-07-01 17:23:00,79.2,69.8,29.80,SSE,167,1.0,6.0,73,0.04,,SKC,0.09,VWS V14.01,2013-07-01 21:23:00,
2013-07-01 17:28:00,78.4,69.0,29.81,South,172,1.0,6.0,73,0.04,,SKC,0.09,VWS V14.01,2013-07-01 21:28:00,
2013-07-01 17:30:00,78.2,69.2,29.80,NE,51,2.0,6.0,74,0.04,,SKC,0.09,VWS V14.01,2013-07-01 21:30:00,
2013-07-01 17:33:00,77.4,68.1,29.81,SW,214,1.0,8.0,73,0.00,,SKC,0.09,VWS V14.01,2013-07-01 21:33:00,
2013-07-01 17:38:00,76.9,68.4,29.81,SW,217,1.0,8.0,75,0.00,,SKC,0.09,VWS V14.01,2013-07-01 21:38:00,
2013-07-01 17:43:00,76.4,68.3,29.81,SSW,211,7.0,8.0,76,0.00,,SKC,0.09,VWS V14.01,2013-07-01 21:43:00,
2013-07-01 17:48:00,76.1,67.6,29.81,South,170,0.0,8.0,75,0.00,,SKC,0.09,VWS V14.01,2013-07-01 21:48:00,
2013-07-01 17:53:00,75.9,67.8,29.81,SW,224,0.0,8.0,76,0.00,,SKC,0.09,VWS V14.01,2013-07-01 21:53:00,
2013-07-01 17:58:00,75.5,67.4,29.82,SW,221,1.0,8.0,76,0.00,,SKC,0.09,VWS V14.01,2013-07-01 21:58:00,
2013-07-01 18:00:00,75.5,67.4,29.82,SSW,205,1.0,8.0,76,0.00,,SKC,0.09,VWS V14.01,2013-07-01 22:00:00,
2013-07-01 18:03:00,75.2,67.5,29.82,SSE,166,1.0,4.0,77,0.00,,SKC,0.09,VWS V14.01,2013-07-01 22:03:00,
2013-07-01 18:08:00,75.0,66.9,29.82,SSW,208,5.0,7.0,76,0.00,,SKC,0.09,VWS V14.01,2013-07-01 22:08:00,
2013-07-01 18:13:00,74.8,67.1,29.82,WSW,249,1.0,7.0,77,0.00,,SKC,0.09,VWS V14.01,2013-07-01 22:13:00,
2013-07-01 18:18:00,74.5,66.8,29.83,WSW,238,1.0,7.0,77,0.00,,SKC,0.09,VWS V14.01,2013-07-01 22:18:00,
2013-07-01 18:23:00,74.2,66.2,29.83,South,173,1.0,7.0,76,0.00,,SKC,0.09,VWS V14.01,2013-07-01 22:23:00,
2013-07-01 18:28:00,74.2,66.5,29.83,West,270,0.0,7.0,77,0.00,,SKC,0.09,VWS V14.01,2013-07-01 22:28:00,
2013-07-01 18:30:00,74.1,66.4,29.83,West,270,0.0,7.0,77,0.00,,SKC,0.09,VWS V14.01,2013-07-01 22:30:00,
2013-07-01 18:33:00,74.0,66.7,29.83,East,82,1.0,5.0,78,0.00,,SKC,0.09,VWS V14.01,2013-07-01 22:33:00,
2013-07-01 18:38:00,73.8,66.5,29.83,NW,314,0.0,5.0,78,0.00,,SKC,0.09,VWS V14.01,2013-07-01 22:38:00,
2013-07-01 18:43:00,73.6,66.7,29.84,ESE,102,0.0,5.0,79,0.00,,SKC,0.09,VWS V14.01,2013-07-01 22:43:00,
2013-07-01 18:48:00,73.3,66.4,29.85,East,101,1.0,5.0,79,0.00,,SKC,0.09,VWS V14.01,2013-07-01 22:48:00,
2013-07-01 18:53:00,73.0,66.8,29.85,East,101,0.0,5.0,81,0.00,,SKC,0.09,VWS V14.01,2013-07-01 22:53:00,
2013-07-01 18:58:00,72.7,66.5,29.86,West,264,1.0,5.0,81,0.00,,SKC,0.09,VWS V14.01,2013-07-01 22:58:00,
2013-07-01 19:00:00,72.7,66.9,29.87,WNW,298,5.0,5.0,82,0.00,,SKC,0.09,VWS V14.01,2013-07-01 23:00:00,
2013-07-01 19:03:00,71.4,64.6,29.88,NW,319,3.0,10.0,79,0.00,,SKC,0.09,VWS V14.01,2013-07-01 23:03:00,
2013-07-01 19:08:00,69.2,64.2,29.88,NE,46,2.0,10.0,84,0.00,,SKC,0.09,VWS V14.01,2013-07-01 23:08:00,
2013-07-01 19:13:00,68.0,64.0,29.89,ENE,65,2.0,10.0,87,0.01,,SKC,0.10,VWS V14.01,2013-07-01 23:13:00,
2013-07-01 19:18:00,67.3,64.0,29.89,NNE,25,2.0,10.0,89,0.03,,SKC,0.12,VWS V14.01,2013-07-01 23:18:00,
2013-07-01 19:23:00,66.6,63.6,29.89,WNW,301,2.0,10.0,90,0.05,,SKC,0.14,VWS V14.01,2013-07-01 23:23:00,
2013-07-01 19:28:00,66.0,63.6,29.90,ENE,72,5.0,10.0,92,0.08,,SKC,0.17,VWS V14.01,2013-07-01 23:28:00,
2013-07-01 19:30:00,65.9,63.5,29.91,NE,44,2.0,10.0,92,0.11,,SKC,0.20,VWS V14.01,2013-07-01 23:30:00,
2013-07-01 19:33:00,65.7,63.6,29.91,ENE,62,2.0,3.0,93,0.22,,SKC,0.31,VWS V14.01,2013-07-01 23:33:00,
2013-07-01 19:38:00,65.4,63.6,29.91,West,260,1.0,3.0,94,0.36,,SKC,0.45,VWS V14.01,2013-07-01 23:38:00,
2013-07-01 19:43:00,65.3,63.8,29.92,West,259,1.0,3.0,95,0.46,,SKC,0.55,VWS V14.01,2013-07-01 23:43:00,
2013-07-01 19:48:00,65.2,63.7,29.92,West,262,0.0,3.0,95,0.56,,SKC,0.65,VWS V14.01,2013-07-01 23:48:00,
2013-07-01 19:53:00,65.2,64.0,29.92,NNE,26,1.0,3.0,96,0.63,,SKC,0.72,VWS V14.01,2013-07-01 23:53:00,
2013-07-01 19:58:00,65.2,64.0,29.91,ENE,60,1.0,4.0,96,0.67,,SKC,0.76,VWS V14.01,2013-07-01 23:58:00,
2013-07-01 20:00:00,65.2,64.0,29.91,East,81,1.0,4.0,96,0.68,,SKC,0.77,VWS V14.01,2013-07-02 00:00:00,
2013-07-01 20:03:00,65.1,63.9,29.91,ENE,60,2.0,3.0,96,0.69,,SKC,0.78,VWS V14.01,2013-07-02 00:03:00,
2013-07-01 20:08:00,65.0,63.8,29.92,ENE,60,0.0,3.0,96,0.71,,SKC,0.80,VWS V14.01,2013-07-02 00:08:00,
2013-07-01 20:13:00,65.1,64.2,29.92,ENE,62,1.0,3.0,97,0.73,,SKC,0.82,VWS V14.01,2013-07-02 00:13:00,
2013-07-01 20:18:00,65.1,64.2,29.92,ENE,63,0.0,3.0,97,0.75,,SKC,0.84,VWS V14.01,2013-07-02 00:18:00,
2013-07-01 20:23:00,65.2,64.3,29.92,East,85,0.0,3.0,97,0.78,,SKC,0.87,VWS V14.01,2013-07-02 00:23:00,
2013-07-01 20:28:00,65.2,64.3,29.92,East,84,0.0,3.0,97,0.79,,SKC,0.88,VWS V14.01,2013-07-02 00:28:00,
2013-07-01 20:30:00,65.3,64.4,29.92,East,84,0.0,3.0,97,0.80,,SKC,0.89,VWS V14.01,2013-07-02 00:30:00,
2013-07-01 20:33:00,65.3,64.4,29.92,East,84,0.0,0.0,97,0.70,,SKC,0.90,VWS V14.01,2013-07-02 00:33:00,
2013-07-01 20:38:00,65.2,64.3,29.92,East,84,0.0,1.0,97,0.71,,SKC,0.91,VWS V14.01,2013-07-02 00:38:00,
2013-07-01 20:43:00,65.1,64.2,29.92,East,84,0.0,1.0,97,0.71,,SKC,0.91,VWS V14.01,2013-07-02 00:43:00,
2013-07-01 20:48:00,65.2,64.3,29.92,East,84,0.0,1.0,97,0.72,,SKC,0.92,VWS V14.01,2013-07-02 00:48:00,
2013-07-01 20:53:00,65.2,64.3,29.92,East,85,0.0,1.0,97,0.72,,SKC,0.92,VWS V14.01,2013-07-02 00:53:00,
2013-07-01 20:58:00,65.2,64.3,29.92,East,84,0.0,1.0,97,0.72,,SKC,0.92,VWS V14.01,2013-07-02 00:58:00,
2013-07-01 21:00:00,65.2,64.3,29.92,East,84,1.0,1.0,97,0.72,,SKC,0.92,VWS V14.01,2013-07-02 01:00:00,
2013-07-01 21:03:00,65.2,64.6,29.92,East,84,0.0,1.0,98,0.15,,SKC,0.92,VWS V14.01,2013-07-02 01:03:00,
2013-07-01 21:08:00,65.1,64.2,29.93,East,84,0.0,1.0,97,0.15,,SKC,0.92,VWS V14.01,2013-07-02 01:08:00,
2013-07-01 21:13:00,65.1,64.5,29.92,East,84,0.0,1.0,98,0.15,,SKC,0.92,VWS V14.01,2013-07-02 01:13:00,
2013-07-01 21:18:00,65.0,64.4,29.92,East,85,0.0,1.0,98,0.15,,SKC,0.92,VWS V14.01,2013-07-02 01:18:00,
2013-07-01 21:23:00,65.1,64.5,29.93,East,85,0.0,1.0,98,0.15,,SKC,0.92,VWS V14.01,2013-07-02 01:23:00,
2013-07-01 21:28:00,65.1,64.5,29.93,East,84,0.0,1.0,98,0.15,,SKC,0.92,VWS V14.01,2013-07-02 01:28:00,
2013-07-01 21:30:00,65.1,64.5,29.93,East,85,0.0,1.0,98,0.15,,SKC,0.92,VWS V14.01,2013-07-02 01:30:00,
2013-07-01 21:33:00,65.1,64.5,29.93,East,85,0.0,0.0,98,0.03,,SKC,0.92,VWS V14.01,2013-07-02 01:33:00,
2013-07-01 21:38:00,65.0,64.4,29.93,South,190,0.0,2.0,98,0.03,,SKC,0.92,VWS V14.01,2013-07-02 01:38:00,
2013-07-01 21:43:00,65.0,64.4,29.93,South,188,0.0,2.0,98,0.03,,SKC,0.92,VWS V14.01,2013-07-02 01:43:00,
2013-07-01 21:48:00,64.9,64.3,29.93,South,181,0.0,2.0,98,0.03,,SKC,0.92,VWS V14.01,2013-07-02 01:48:00,
2013-07-01 21:53:00,64.9,64.3,29.92,SW,221,0.0,2.0,98,0.03,,SKC,0.92,VWS V14.01,2013-07-02 01:53:00,
2013-07-01 21:58:00,64.9,64.0,29.92,SW,221,0.0,2.0,97,0.03,,SKC,0.92,VWS V14.01,2013-07-02 01:58:00,
2013-07-01 22:00:00,64.9,64.3,29.92,SW,221,0.0,2.0,98,0.03,,SKC,0.92,VWS V14.01,2013-07-02 02:00:00,
2013-07-01 22:03:00,64.8,63.9,29.92,SW,221,0.0,0.0,97,0.00,,SKC,0.92,VWS V14.01,2013-07-02 02:03:00,
2013-07-01 22:08:00,64.7,63.8,29.92,SW,221,0.0,1.0,97,0.00,,SKC,0.92,VWS V14.01,2013-07-02 02:08:00,
2013-07-01 22:13:00,64.6,63.7,29.92,SW,221,0.0,1.0,97,0.00,,SKC,0.92,VWS V14.01,2013-07-02 02:13:00,
2013-07-01 22:18:00,64.7,64.1,29.92,SW,221,0.0,1.0,98,0.00,,SKC,0.92,VWS V14.01,2013-07-02 02:18:00,
2013-07-01 22:23:00,64.6,64.0,29.92,SW,221,0.0,1.0,98,0.00,,SKC,0.92,VWS V14.01,2013-07-02 02:23:00,
2013-07-01 22:28:00,64.5,63.6,29.93,SW,221,0.0,1.0,97,0.00,,SKC,0.92,VWS V14.01,2013-07-02 02:28:00,
2013-07-01 22:30:00,64.5,63.6,29.93,SW,221,0.0,1.0,97,0.00,,SKC,0.92,VWS V14.01,2013-07-02 02:30:00,
2013-07-01 22:33:00,64.4,63.5,29.93,SW,221,0.0,0.0,97,0.00,,SKC,0.92,VWS V14.01,2013-07-02 02:33:00,
2013-07-01 22:38:00,64.3,63.4,29.93,SW,221,0.0,0.0,97,0.00,,SKC,0.92,VWS V14.01,2013-07-02 02:38:00,
2013-07-01 22:43:00,64.3,63.7,29.93,SW,221,0.0,0.0,98,0.00,,SKC,0.92,VWS V14.01,2013-07-02 02:43:00,
2013-07-01 22:48:00,64.3,63.7,29.93,SW,221,0.0,0.0,98,0.00,,SKC,0.92,VWS V14.01,2013-07-02 02:48:00,
2013-07-01 22:53:00,64.3,63.7,29.93,SW,221,0.0,0.0,98,0.00,,SKC,0.92,VWS V14.01,2013-07-02 02:53:00,
2013-07-01 22:58:00,64.3,63.7,29.93,SW,221,0.0,0.0,98,0.00,,SKC,0.92,VWS V14.01,2013-07-02 02:58:00,
2013-07-01 23:00:00,64.3,63.7,29.93,SW,221,0.0,1.0,98,0.00,,SKC,0.92,VWS V14.01,2013-07-02 03:00:00,
2013-07-01 23:03:00,64.4,63.8,29.94,SW,221,0.0,1.0,98,0.00,,SKC,0.92,VWS V14.01,2013-07-02 03:03:00,
2013-07-01 23:08:00,64.4,63.8,29.93,SW,221,0.0,1.0,98,0.00,,SKC,0.92,VWS V14.01,2013-07-02 03:08:00,
2013-07-01 23:13:00,64.4,63.8,29.93,SW,221,0.0,1.0,98,0.00,,SKC,0.92,VWS V14.01,2013-07-02 03:13:00,
2013-07-01 23:18:00,64.4,63.8,29.93,SW,221,0.0,1.0,98,0.00,,SKC,0.92,VWS V14.01,2013-07-02 03:18:00,
2013-07-01 23:23:00,64.5,63.9,29.94,SW,221,0.0,1.0,98,0.00,,SKC,0.92,VWS V14.01,2013-07-02 03:23:00,
2013-07-01 23:28:00,64.5,63.9,29.93,SE,131,1.0,1.0,98,0.00,,SKC,0.92,VWS V14.01,2013-07-02 03:28:00,
2013-07-01 23:30:00,64.5,63.9,29.93,SE,131,0.0,1.0,98,0.00,,SKC,0.92,VWS V14.01,2013-07-02 03:30:00,
2013-07-01 23:33:00,64.5,63.9,29.93,SE,131,0.0,1.0,98,0.00,,SKC,0.92,VWS V14.01,2013-07-02 03:33:00,
2013-07-01 23:38:00,64.5,63.9,29.93,SE,131,0.0,1.0,98,0.00,,SKC,0.92,VWS V14.01,2013-07-02 03:38:00,
2013-07-01 23:43:00,64.5,63.9,29.93,SE,131,0.0,1.0,98,0.00,,SKC,0.92,VWS V14.01,2013-07-02 03:43:00,
2013-07-01 23:48:00,64.5,63.9,29.93,SE,131,0.0,1.0,98,0.00,,SKC,0.92,VWS V14.01,2013-07-02 03:48:00,
2013-07-01 23:53:00,64.5,63.9,29.93,SE,131,0.0,1.0,98,0.00,,SKC,0.92,VWS V14.01,2013-07-02 03:53:00,
2013-07-01 23:58:00,64.4,63.8,29.92,SE,131,0.0,1.0,98,0.00,,SKC,0.92,VWS V14.01,2013-07-02 03:58:00,